TimeEDT,TemperatureF,Dew PointF,Humidity,Sea Level PressureIn,VisibilityMPH,Wind Direction,Wind SpeedMPH,Gust SpeedMPH,PrecipitationIn,Events,Conditions,WindDirDegrees,DateUTC
12:51 AM,61.0,51.1,70,30.19,10.0,ESE,8.1,-,N/A,,Clear,110,2012-03-21 04:51:00
1:51 AM,61.0,51.1,70,30.20,10.0,SE,6.9,-,N/A,,Clear,130,2012-03-21 05:51:00
2:51 AM,57.9,51.1,78,30.22,10.0,ESE,6.9,-,N/A,,Clear,120,2012-03-21 06:51:00
3:51 AM,57.0,51.1,81,30.21,10.0,ESE,8.1,-,N/A,,Clear,120,2012-03-21 07:51:00
4:51 AM,57.2,51.8,82,30.22,10.0,ESE,6.9,-,N/A,,Clear,110,2012-03-21 08:51:00
5:51 AM,55.0,51.1,86,30.22,10.0,East,6.9,-,N/A,,Clear,100,2012-03-21 09:51:00
6:51 AM,55.0,51.1,86,30.22,10.0,ESE,8.1,-,N/A,,Clear,110,2012-03-21 10:51:00
7:51 AM,55.4,51.8,88,30.25,10.0,ESE,6.9,-,N/A,,Clear,120,2012-03-21 11:51:00
8:51 AM,60.1,54.0,80,30.24,10.0,ESE,9.2,-,N/A,,Clear,110,2012-03-21 12:51:00
9:51 AM,64.0,55.0,73,30.25,10.0,ESE,9.2,-,N/A,,Clear,120,2012-03-21 13:51:00
10:51 AM,69.1,55.9,63,30.25,10.0,ESE,5.8,-,N/A,,Clear,110,2012-03-21 14:51:00
11:51 AM,73.0,55.9,55,30.23,10.0,ESE,8.1,-,N/A,,Clear,110,2012-03-21 15:51:00
12:51 PM,75.0,54.0,48,30.23,10.0,Calm,Calm,-,N/A,,Partly Cloudy,0,2012-03-21 16:51:00
1:51 PM,77.0,51.1,40,30.20,10.0,ENE,8.1,16.1,N/A,,Partly Cloudy,70,2012-03-21 17:51:00
2:51 PM,77.0,52.0,42,30.17,10.0,Variable,4.6,-,N/A,,Partly Cloudy,0,2012-03-21 18:51:00
3:51 PM,79.0,52.0,39,30.15,10.0,ESE,9.2,17.3,N/A,,Partly Cloudy,120,2012-03-21 19:51:00
4:51 PM,78.1,50.0,37,30.13,10.0,Variable,5.8,-,N/A,,Partly Cloudy,0,2012-03-21 20:51:00
5:51 PM,78.1,51.1,39,30.13,10.0,SE,8.1,-,N/A,,Partly Cloudy,140,2012-03-21 21:51:00
6:51 PM,75.0,51.1,43,30.14,10.0,SE,6.9,-,N/A,,Partly Cloudy,130,2012-03-21 22:51:00
7:51 PM,69.1,51.1,53,30.16,10.0,ESE,5.8,-,N/A,,Partly Cloudy,120,2012-03-21 23:51:00
8:51 PM,66.9,51.1,57,30.18,10.0,ESE,9.2,-,N/A,,Clear,110,2012-03-22 00:51:00
9:51 PM,66.0,53.1,63,30.19,10.0,ESE,11.5,-,N/A,,Clear,120,2012-03-22 01:51:00
10:51 PM,64.9,53.1,65,30.19,10.0,SE,10.4,-,N/A,,Clear,130,2012-03-22 02:51:00
11:51 PM,63.0,53.1,70,30.20,10.0,SE,11.5,-,N/A,,Clear,130,2012-03-22 03:51:00